Location: ???????
(55.4362°N, 38.1183°E)
Time: 18:19:32
(UTC+00:00)

ATLAS 3B R/B - Pass Details

Date: 17 June 2021
Orbit: 1003 x 1191 km, 63.8° (Epoch: 21 July)

Event Time Altitude Azimuth Distance (km) Brightness Sun altitude
Rises 20:34:11 0° 224° (SW) 3,734 5.2 -10.3°
Reaches altitude 10° 20:36:44 10° 224° (SW) 2,798 4.6 -10.4°
Maximum altitude 20:43:20 84° 137° (SE) 1,053 2.6 -10.6°
Drops below altitude 10° 20:50:13 10° 51° (NE) 2,920 5.4 -10.7°
Sets 20:52:56 0° 51° (NE) 3,906 6.1 -10.8°
